LXVFR ELLX-ELLX

Flight info

Callsign LXVFR
Flight time 0h 2m
Altitude 2000
Route ELLX24
Aircraft C172/L-VGDW/C

Departure

Time 2026-05-07 17:04
Airport Luxembourg-Findel International Airport (ELLX)

Arrival

Time 2026-05-07 17:06
Airport Luxembourg-Findel International Airport (ELLX)
Time Latitude Longitude Altitude Speed Heading
2026-05-07 16:47 49.62323 6.19558 1198 ft 0 kts 155°
2026-05-07 16:48 49.62323 6.19557 1198 ft 0 kts 157°
2026-05-07 16:48 49.62327 6.19557 1197 ft 1 kts 191°
2026-05-07 16:48 49.62329 6.19557 1197 ft 0 kts 207°
2026-05-07 16:48 49.62327 6.19554 1197 ft 0 kts 238°
2026-05-07 16:49 49.62319 6.19533 1197 ft 9 kts 242°
2026-05-07 16:49 49.62293 6.19465 1194 ft 7 kts 214°
2026-05-07 16:50 49.62275 6.19505 1195 ft 6 kts 59°
2026-05-07 16:50 49.62301 6.19571 1198 ft 8 kts 59°
2026-05-07 16:50 49.62333 6.19659 1202 ft 10 kts 59°
2026-05-07 16:50 49.62366 6.19748 1209 ft 7 kts 60°
2026-05-07 16:51 49.62408 6.19739 1208 ft 10 kts 324°
2026-05-07 16:51 49.62449 6.19758 1210 ft 6 kts 15°
2026-05-07 16:51 49.62448 6.19714 1208 ft 5 kts 178°
2026-05-07 16:51 49.62443 6.19716 1208 ft 0 kts 144°
2026-05-07 17:00 49.62442 6.19717 1208 ft 1 kts 143°
2026-05-07 17:00 49.62417 6.19729 1208 ft 0 kts 144°
2026-05-07 17:01 49.62390 6.19759 1210 ft 6 kts 144°
2026-05-07 17:01 49.62339 6.19815 1212 ft 10 kts 161°
2026-05-07 17:02 49.62280 6.19697 1204 ft 20 kts 240°
2026-05-07 17:02 49.62203 6.19550 1196 ft 16 kts 182°
2026-05-07 17:02 49.62106 6.19674 1198 ft 27 kts 81°
2026-05-07 17:02 49.62255 6.20102 1222 ft 63 kts 60°
2026-05-07 17:03 49.62526 6.20816 1259 ft 88 kts 61°
2026-05-07 17:03 49.62844 6.21651 1413 ft 93 kts 60°
2026-05-07 17:03 49.62824 6.22500 1696 ft 91 kts 140°
2026-05-07 17:03 49.62264 6.23025 1827 ft 95 kts 147°
2026-05-07 17:04 49.61694 6.23535 1906 ft 98 kts 150°
2026-05-07 17:04 49.61043 6.23757 2025 ft 96 kts 214°
2026-05-07 17:04 49.60676 6.22891 1960 ft 105 kts 251°
2026-05-07 17:04 49.60442 6.21792 1994 ft 107 kts 258°
2026-05-07 17:05 49.60282 6.20676 2091 ft 106 kts 265°
2026-05-07 17:05 49.60184 6.19555 1966 ft 103 kts 278°
2026-05-07 17:05 49.60417 6.18587 1868 ft 95 kts 318°
2026-05-07 17:05 49.61002 6.17956 1479 ft 111 kts 342°
2026-05-07 17:06 49.61588 6.18337 1300 ft 96 kts 56°
2026-05-07 17:06 49.61913 6.19179 1177 ft 82 kts 62°
2026-05-07 17:06 49.62103 6.19694 1199 ft 34 kts 59°
2026-05-07 17:06 49.62281 6.20175 1224 ft 69 kts 60°
2026-05-07 17:07 49.62560 6.20902 1313 ft 85 kts 60°
2026-05-07 17:07 49.62858 6.21707 1533 ft 86 kts 64°
2026-05-07 17:07 49.62689 6.22491 1805 ft 85 kts 136°
2026-05-07 17:07 49.62297 6.22910 1830 ft 98 kts 145°
2026-05-07 17:08 49.61816 6.23389 1880 ft 104 kts 148°
2026-05-07 17:08 49.61166 6.23812 2022 ft 102 kts 183°
2026-05-07 17:08 49.60626 6.23198 1951 ft 107 kts 256°
2026-05-07 17:08 49.60480 6.22063 2014 ft 107 kts 263°
2026-05-07 17:09 49.60327 6.20954 2020 ft 109 kts 262°
2026-05-07 17:09 49.60203 6.19794 2062 ft 108 kts 276°
2026-05-07 17:09 49.60451 6.18731 1907 ft 109 kts 305°
2026-05-07 17:09 49.61030 6.17980 1647 ft 114 kts 351°
2026-05-07 17:10 49.61700 6.18604 1262 ft 126 kts 59°
2026-05-07 17:10 49.62081 6.19634 1199 ft 95 kts 61°
2026-05-07 17:10 49.62363 6.20397 1230 ft 79 kts 59°
2026-05-07 17:10 49.62671 6.21203 1352 ft 90 kts 60°
2026-05-07 17:11 49.62905 6.22081 1585 ft 88 kts 100°
2026-05-07 17:11 49.62523 6.22745 1832 ft 93 kts 145°
2026-05-07 17:11 49.61974 6.23315 1979 ft 95 kts 147°
2026-05-07 17:11 49.61383 6.23828 2011 ft 98 kts 163°
2026-05-07 17:12 49.60759 6.23491 1988 ft 102 kts 236°
2026-05-07 17:12 49.60513 6.22439 1964 ft 105 kts 263°
2026-05-07 17:12 49.60372 6.21347 2018 ft 105 kts 264°
2026-05-07 17:12 49.60269 6.20242 1957 ft 103 kts 269°
2026-05-07 17:13 49.60346 6.19199 1937 ft 96 kts 300°
2026-05-07 17:13 49.60773 6.18399 1748 ft 100 kts 326°
2026-05-07 17:13 49.61421 6.18198 1447 ft 99 kts 28°
2026-05-07 17:13 49.61844 6.18993 1189 ft 93 kts 60°
2026-05-07 17:14 49.62118 6.19742 1202 ft 61 kts 60°
2026-05-07 17:14 49.62200 6.19953 1214 ft 4 kts 59°
2026-05-07 17:14 49.62287 6.20189 1224 ft 46 kts 61°
2026-05-07 17:14 49.62514 6.20777 1259 ft 76 kts 60°
2026-05-07 17:15 49.62781 6.21473 1495 ft 72 kts 59°
2026-05-07 17:15 49.62874 6.22235 1660 ft 82 kts 115°
2026-05-07 17:15 49.62425 6.22877 1782 ft 97 kts 142°
2026-05-07 17:15 49.61837 6.23425 1946 ft 103 kts 149°
2026-05-07 17:16 49.61146 6.23759 2055 ft 111 kts 194°
2026-05-07 17:16 49.60599 6.22948 2026 ft 117 kts 258°
2026-05-07 17:16 49.60456 6.21782 1997 ft 106 kts 265°
2026-05-07 17:16 49.60339 6.20668 1900 ft 103 kts 266°
2026-05-07 17:17 49.60223 6.19596 1925 ft 103 kts 263°
2026-05-07 17:17 49.60065 6.18475 2016 ft 107 kts 261°
2026-05-07 17:17 49.59886 6.17397 2106 ft 102 kts 260°
2026-05-07 17:17 49.59892 6.16348 1948 ft 100 kts 304°
2026-05-07 17:18 49.60492 6.15969 1749 ft 101 kts 20°
2026-05-07 17:18 49.60999 6.16758 1522 ft 107 kts 57°
2026-05-07 17:18 49.61373 6.17724 1369 ft 104 kts 61°
2026-05-07 17:18 49.61728 6.18683 1243 ft 102 kts 60°
2026-05-07 17:19 49.62073 6.19602 1208 ft 94 kts 62°
2026-05-07 17:19 49.62366 6.20406 1231 ft 76 kts 60°
2026-05-07 17:19 49.62637 6.21122 1262 ft 88 kts 58°
2026-05-07 17:19 49.62957 6.21995 1379 ft 98 kts 63°
2026-05-07 17:20 49.63359 6.22852 1529 ft 102 kts 29°
2026-05-07 17:20 49.64044 6.22794 1769 ft 101 kts 346°
2026-05-07 17:20 49.64724 6.22545 1998 ft 101 kts 348°
2026-05-07 17:20 49.65455 6.22297 2005 ft 113 kts 348°
2026-05-07 17:21 49.66232 6.22039 2005 ft 112 kts 349°
2026-05-07 17:21 49.66985 6.21796 1995 ft 109 kts 349°
2026-05-07 17:21 49.67721 6.21541 1996 ft 108 kts 348°
2026-05-07 17:21 49.68456 6.21308 1994 ft 108 kts 349°
2026-05-07 17:22 49.69190 6.21063 1987 ft 107 kts 349°
2026-05-07 17:22 49.69899 6.20828 1984 ft 104 kts 348°
2026-05-07 17:22 49.70606 6.20594 1983 ft 104 kts 348°
2026-05-07 17:22 49.71299 6.20364 1982 ft 101 kts 349°
2026-05-07 17:23 49.71981 6.20141 1983 ft 101 kts 349°
2026-05-07 17:23 49.72665 6.19899 1986 ft 100 kts 348°
2026-05-07 17:23 49.73325 6.19680 1990 ft 93 kts 348°
2026-05-07 17:23 49.73968 6.19462 1985 ft 96 kts 349°
2026-05-07 17:24 49.74634 6.19230 1990 ft 99 kts 349°
2026-05-07 17:24 49.75207 6.18695 1986 ft 101 kts 300°
2026-05-07 17:24 49.75083 6.17658 1978 ft 107 kts 228°
2026-05-07 17:24 49.74528 6.16907 1993 ft 105 kts 225°
2026-05-07 17:25 49.73975 6.16149 1999 ft 107 kts 225°
2026-05-07 17:25 49.73470 6.15311 1993 ft 107 kts 252°
2026-05-07 17:25 49.73625 6.14295 2006 ft 99 kts 315°
2026-05-07 17:25 49.74090 6.13524 1985 ft 100 kts 315°
2026-05-07 17:26 49.74544 6.12717 1995 ft 99 kts 314°
2026-05-07 17:26 49.75008 6.11905 1994 ft 101 kts 315°
2026-05-07 17:26 49.75474 6.11100 1999 ft 100 kts 315°
2026-05-07 17:26 49.75937 6.10311 1990 ft 99 kts 315°
2026-05-07 17:27 49.76395 6.09518 1985 ft 99 kts 315°
2026-05-07 17:27 49.76848 6.08724 1992 ft 98 kts 314°
2026-05-07 17:27 49.77296 6.07935 1985 ft 97 kts 314°
2026-05-07 17:27 49.77740 6.07147 1984 ft 97 kts 314°
2026-05-07 17:28 49.78192 6.06361 1982 ft 98 kts 315°
2026-05-07 17:28 49.78656 6.05570 1985 ft 100 kts 315°
2026-05-07 17:28 49.79118 6.04778 1983 ft 99 kts 314°
2026-05-07 17:28 49.79581 6.03978 1990 ft 100 kts 315°
2026-05-07 17:29 49.80060 6.03231 1988 ft 98 kts 334°
2026-05-07 17:29 49.80678 6.03412 1997 ft 97 kts 42°
2026-05-07 17:29 49.81135 6.04186 2002 ft 97 kts 44°
2026-05-07 17:29 49.81492 6.05060 1985 ft 101 kts 86°
2026-05-07 17:30 49.81142 6.05990 1998 ft 106 kts 136°
2026-05-07 17:30 49.80608 6.06776 2003 ft 106 kts 134°
2026-05-07 17:30 49.80068 6.07562 1989 ft 106 kts 143°
2026-05-07 17:30 49.79371 6.07596 1995 ft 107 kts 217°
2026-05-07 17:31 49.78821 6.06839 2003 ft 106 kts 224°
2026-05-07 17:31 49.78264 6.06072 2003 ft 108 kts 225°
2026-05-07 17:31 49.77686 6.05261 1892 ft 115 kts 224°
2026-05-07 17:31 49.77086 6.04396 1792 ft 119 kts 225°
2026-05-07 17:32 49.76492 6.03527 1720 ft 119 kts 225°
2026-05-07 17:32 49.75893 6.02646 1636 ft 119 kts 224°
2026-05-07 17:32 49.75311 6.01777 1614 ft 114 kts 228°
2026-05-07 17:32 49.75114 6.01050 1616 ft 109 kts 272°
2026-05-07 17:33 49.75631 5.99824 1587 ft 106 kts 315°
2026-05-07 17:33 49.76153 5.99010 1409 ft 105 kts 326°
2026-05-07 17:33 49.76534 5.98161 1115 ft 88 kts 296°
2026-05-07 17:33 49.76756 5.97364 947 ft 73 kts 282°
2026-05-07 17:34 49.76811 5.96788 929 ft 28 kts 281°
2026-05-07 17:34 49.76827 5.96563 935 ft 15 kts 193°
2026-05-07 17:34 49.76793 5.96674 930 ft 11 kts 51°
2026-05-07 17:34 49.76802 5.96680 934 ft 0 kts 13°
2026-05-07 17:35 49.76791 5.96678 930 ft 0 kts
2026-05-07 17:35 49.76790 5.96678 930 ft 0 kts
2026-05-07 17:36 49.76792 5.96678 930 ft 2 kts
2026-05-07 17:36 49.76817 5.96583 936 ft 17 kts 278°
2026-05-07 17:36 49.76827 5.96418 933 ft 26 kts 274°
2026-05-07 17:36 49.76837 5.96116 940 ft 28 kts 275°
2026-05-07 17:37 49.76861 5.95988 944 ft 12 kts 353°
2026-05-07 17:37 49.76855 5.96289 937 ft 51 kts 99°
2026-05-07 17:37 49.76811 5.96963 1004 ft 66 kts 95°
2026-05-07 17:37 49.76720 5.97655 1161 ft 63 kts 101°
2026-05-07 17:38 49.76616 5.98399 1261 ft 77 kts 102°
2026-05-07 17:38 49.76511 5.99145 1545 ft 68 kts 100°
2026-05-07 17:38 49.76557 6.00082 1284 ft 109 kts 42°
2026-05-07 17:38 49.77063 5.99865 1248 ft 75 kts 269°
2026-05-07 17:39 49.76863 5.99015 1147 ft 92 kts 245°
2026-05-07 17:39 49.76655 5.98132 1000 ft 82 kts 269°
2026-05-07 17:39 49.76746 5.97386 929 ft 60 kts 287°
2026-05-07 17:39 49.76817 5.96739 949 ft 71 kts 276°
2026-05-07 17:40 49.77017 5.95969 992 ft 87 kts 324°
2026-05-07 17:40 49.77514 5.95252 983 ft 109 kts 307°
2026-05-07 17:40 49.77494 5.94324 1105 ft 81 kts 210°
2026-05-07 17:40 49.77068 5.94536 1151 ft 72 kts 123°
2026-05-07 17:41 49.76750 5.95260 1106 ft 82 kts 117°
2026-05-07 17:41 49.76766 5.95972 983 ft 62 kts 64°
2026-05-07 17:41 49.76825 5.96531 933 ft 42 kts 104°